{"data":{"norad_id":62752,"epoch":"2026-09-21T00:06:59.717376Z","epoch_age_seconds":127641,"freshness":"FRESH","line1":"1 62752U 25014T   26264.00485784  .00005830  00000+0  22122-3 0  9997","line2":"2 62752  43.0053 131.7492 0001469 274.1425  85.9259 15.27581553 93126","mean_motion":15.27581553,"eccentricity":0.0001469,"inclination_deg":43.0053,"raan_deg":131.7492,"arg_perigee_deg":274.1425,"mean_anomaly_deg":85.9259,"bstar":0.00022122,"rev_number":9312,"period_min":94.266652878336,"perigee_km":482.03653824852,"apogee_km":484.05235335729,"semimajor_km":6861.1814458029,"source":"CELESTRAK","updated_at":"2026-09-22T09:00:49.659403Z"}}